Showing default

O3B FM15, 43231

Orbit data source: Space-Track

O3B FM15, 43231 is a payload satellite owned by O3B SES (JE) that was launched on Fri, 09 Mar 2018 UTC via a SOYUZ-ST-B launch vehicle from the French Guiana (FRGUI). Payloads include a variety of satellites, spacecraft, and rockets equipped with specific instruments for various scientific and technological missions. These include communications satellites like Starlink; space stations such as the ISS; scientific satellites like the Hubble; Earth observation satellites from companies like Planet Labs, Umbra, and HawkEye 360; GPS; miniature CubeSats for education and research; and military/defense satellites.

Loading next visibility...
O3B FM15 details
Identifier
43231, 2018-024A
Orbit
Active
Last TLE update3 days ago
Origin
Flag of JEO3B SES (JE / O3B)
ManufacturerThales Alenia
MissionOperational Commercial Communications
Bus & MotorPRISMA?, LS-400 AOCS?
Mass700 kg wet, ~500 kg dry
Launch date (UTC)
2018-03-09 (7 years ago)
Launch vehicle
SOYUZ-ST-B
Launch site
French Guiana (FRGUI)
Object type
Payload
Rocket body
Debris
Shape & HBRTrap Box + 2 Pan, 12 m
Radar Cross Section21.980 m², Large (>1 m²)

Expand to show TLE details & history

TLE from 3 days ago
0 O3B FM15
1 43231U 18024A   24358.78849163 -.00000016  00000-0  00000-0 0  9994
2 43231   0.0543   1.9455 0002979 274.7323  83.2890  5.00115171123980
Epoch: 2024-12-23T18:55Z
Definitive object data (Epoch: 2024-12-23T18:55:25.676Z)
Latitude-0.00162°
Longitude-16.66288°
Altitude8,063.877 km
Speed5.255 km/s
True Right ascension00h 00m 00s
True Declination0° 00' 06"
Sunlit
Object was in daylight at TLE epoch
Visualization TLE readout
Latitude-0.05307°
Longitude-133.2418°
Altitude8,060.858 km
Speed5.256 km/s
Apparent Right ascension14h 55m 20s
Apparent Declination-15° 52' 37"
Sunlit
Object is in daylight
Visualization observer readout
Local Sidereal Time21:30:50
Azimuth263.124° W
Elevation-16.82°
Doppler factor1
Orbital elements
Apogee altitude8,073.259 km
Perigee altitude8,064.651 km
Semi-major axis14,447.092 km
Eccentricity0.0002979
Inclination0.0543°
RAAN1.9455°
Arg. of periapsis274.7323°
True anomaly83.3229°
Mean anomaly83.289°
Eccentric anomaly83.30595°
Mean motion1.24989 °/min
BSTARUnknown
Orbital period288.02 mins
Loading maneuver chart data...
Loading historical data...
Loading historical data...
Loading historical data...
Loading historical data...
Loading historical data...
Loading historical data...
Loading historical data...
Other satellites on launch #24 in the year 2018 (2018-03-09 UTC)

O3B FM15 Visibility forecast

Observer location: undefined°, undefined

Span
Click to sort rows by Start time (UTC) header in descending order
Start Az.
Max El. time (UTC)
Max El. Az.
Max El.
End time (UTC)
End Az.
79 mins2024-12-26 22:47:44.484Z231.868° WSW2024-12-26 23:26:44.484Z180.375° SSW24.35°2024-12-27 00:06:44.484Z127.576° SE
78 mins2024-12-27 04:48:44.484Z230.904° WSW2024-12-27 05:26:44.484Z180.401° SSW24.429°2024-12-27 06:06:44.484Z127.607° SE
78 mins2024-12-27 10:48:44.484Z230.968° WSW2024-12-27 11:26:44.484Z180.472° SSW24.388°2024-12-27 12:06:44.484Z127.687° SE
78 mins2024-12-27 16:48:44.484Z230.933° WSW2024-12-27 17:26:44.484Z180.448° SSW24.309°2024-12-27 18:06:44.484Z127.655° SE
|